TimeEDT,TemperatureF,Dew PointF,Humidity,Sea Level PressureIn,VisibilityMPH,Wind Direction,Wind SpeedMPH,Gust SpeedMPH,PrecipitationIn,Events,Conditions,WindDirDegrees,DateUTC
12:53 AM,36.0,30.9,82,29.87,10.0,West,9.2,16.1,N/A,,Overcast,270,2012-11-03 04:53:00
1:53 AM,36.0,30.9,82,29.88,10.0,West,8.1,-,N/A,,Overcast,270,2012-11-03 05:53:00
2:41 AM,37.4,30.2,75,29.86,10.0,WNW,8.1,-,0.00,,Overcast,290,2012-11-03 06:41:00
2:53 AM,37.0,30.9,79,29.88,10.0,West,8.1,-,0.00,,Overcast,280,2012-11-03 06:53:00
3:12 AM,37.4,30.2,75,29.86,10.0,West,9.2,18.4,N/A,,Overcast,280,2012-11-03 07:12:00
3:53 AM,37.0,30.9,79,29.88,10.0,West,9.2,17.3,N/A,,Overcast,280,2012-11-03 07:53:00
4:38 AM,37.4,30.2,75,29.86,10.0,WNW,11.5,19.6,N/A,,Overcast,290,2012-11-03 08:38:00
4:53 AM,37.0,30.9,79,29.89,10.0,WNW,8.1,16.1,N/A,,Overcast,290,2012-11-03 08:53:00
5:53 AM,37.0,30.0,76,29.91,10.0,West,10.4,16.1,N/A,,Overcast,280,2012-11-03 09:53:00
6:53 AM,36.0,30.0,79,29.92,10.0,West,9.2,-,N/A,,Overcast,280,2012-11-03 10:53:00
7:53 AM,36.0,30.0,79,29.94,10.0,West,10.4,18.4,N/A,,Overcast,280,2012-11-03 11:53:00
8:53 AM,37.0,30.0,76,29.96,10.0,WNW,10.4,18.4,N/A,,Scattered Clouds,300,2012-11-03 12:53:00
9:31 AM,37.4,30.2,75,29.94,10.0,WNW,12.7,19.6,N/A,,Mostly Cloudy,300,2012-11-03 13:31:00
9:53 AM,37.9,30.9,76,29.97,10.0,West,8.1,-,N/A,,Overcast,280,2012-11-03 13:53:00
10:53 AM,37.9,30.0,73,29.98,10.0,WNW,12.7,23.0,N/A,,Overcast,300,2012-11-03 14:53:00
11:53 AM,39.9,30.0,68,29.99,10.0,WNW,11.5,20.7,N/A,,Mostly Cloudy,300,2012-11-03 15:53:00
12:05 PM,41.0,30.2,65,29.96,10.0,West,11.5,21.9,N/A,,Mostly Cloudy,280,2012-11-03 16:05:00
12:38 PM,39.2,30.2,70,29.96,10.0,WNW,11.5,19.6,0.00,Rain,Light Rain,290,2012-11-03 16:38:00
12:53 PM,39.0,28.9,67,29.99,10.0,West,13.8,23.0,0.00,,Overcast,280,2012-11-03 16:53:00
1:19 PM,37.4,30.2,75,29.96,10.0,WNW,13.8,23.0,0.00,,Overcast,300,2012-11-03 17:19:00
1:29 PM,41.0,30.2,65,29.96,10.0,WNW,11.5,20.7,0.00,,Overcast,290,2012-11-03 17:29:00
1:39 PM,37.4,30.2,75,29.96,9.0,WNW,12.7,26.5,0.00,Rain,Light Rain,300,2012-11-03 17:39:00
1:46 PM,39.2,30.2,70,29.96,10.0,WNW,12.7,20.7,0.00,,Mostly Cloudy,300,2012-11-03 17:46:00
1:53 PM,39.9,30.9,70,29.99,10.0,WNW,13.8,23.0,0.00,,Mostly Cloudy,300,2012-11-03 17:53:00
2:15 PM,37.4,32.0,81,29.97,7.0,WNW,11.5,27.6,0.00,Rain,Light Rain,300,2012-11-03 18:15:00
2:23 PM,39.2,32.0,75,29.96,10.0,WNW,11.5,20.7,0.00,Rain,Light Rain,290,2012-11-03 18:23:00
2:37 PM,39.2,32.0,75,29.97,9.0,NW,16.1,25.3,0.00,Rain,Light Rain,310,2012-11-03 18:37:00
2:53 PM,37.0,32.0,82,30.00,8.0,NW,10.4,20.7,0.00,Snow,Light Snow,310,2012-11-03 18:53:00
3:04 PM,39.2,32.0,75,29.98,10.0,WNW,11.5,23.0,0.00,,Overcast,300,2012-11-03 19:04:00
3:53 PM,37.0,30.9,79,30.01,8.0,NW,11.5,19.6,0.00,Rain,Light Rain,310,2012-11-03 19:53:00
4:10 PM,37.4,30.2,75,29.99,10.0,NW,11.5,16.1,0.00,,Overcast,310,2012-11-03 20:10:00
4:20 PM,37.4,30.2,75,29.99,10.0,NW,9.2,19.6,0.00,Rain,Light Rain,310,2012-11-03 20:20:00
4:43 PM,37.4,30.2,75,29.99,10.0,WNW,10.4,16.1,0.00,,Overcast,300,2012-11-03 20:43:00
4:53 PM,37.9,30.0,73,30.02,10.0,NW,11.5,17.3,0.00,,Overcast,310,2012-11-03 20:53:00
5:53 PM,37.0,28.9,73,30.04,10.0,West,12.7,19.6,N/A,,Overcast,270,2012-11-03 21:53:00
6:53 PM,37.0,28.9,73,30.05,10.0,West,6.9,16.1,N/A,,Overcast,280,2012-11-03 22:53:00
7:53 PM,37.0,28.0,70,30.06,10.0,WNW,9.2,-,N/A,,Overcast,300,2012-11-03 23:53:00
8:32 PM,37.4,28.4,70,30.03,10.0,WNW,6.9,16.1,0.00,,Overcast,290,2012-11-04 00:32:00
8:53 PM,37.0,28.9,73,30.06,10.0,West,9.2,16.1,0.00,,Overcast,280,2012-11-04 00:53:00
9:53 PM,36.0,28.9,76,30.06,10.0,WNW,8.1,18.4,N/A,,Overcast,290,2012-11-04 01:53:00
10:53 PM,36.0,28.9,76,30.07,10.0,WNW,11.5,16.1,N/A,,Overcast,290,2012-11-04 02:53:00
11:53 PM,36.0,28.0,73,30.06,10.0,WNW,4.6,-,N/A,,Overcast,290,2012-11-04 03:53:00